星链-31621 (STARLINK-31621 )

导读 | 星芒AI

STARLINK-31621 是 SpaceX 星链计划中的一颗低轨通信卫星,属于第 6 批星链卫星(Group 6)。该卫星于 2023 年 3 月 31 日由猎鹰 9 号火箭从佛罗里达州肯尼迪航天中心发射升空。它运行在约 550 公里的近地轨道,旨在为全球用户提供高速互联网服务。星链计划最终目标是部署数万颗卫星,构建覆盖全球的宽带网络系统。STARLINK-31621 采用最新一代星链卫星设计,具备自主变轨和激光通信能力,提高了系统的稳定性和效率。

基本信息
目录编号:
59465
目录名称:
STARLINK-31621
国际标识:
2024-068L
轨道中心:
EARTH
卫星名称:
星链-31621
卫星全名:
星链-31621 (STARLINK-31621 )
卫星状态:
在轨 (已飞行576 天)
发射日期:
2024-04-10 UTC
国别 :
美国 (US)
星等 :
--
轨道信息
数据来源 国际轨道数据
星历时间: 2025-11-06T20:23:03+0800
1天前
查看轨道信息
半长轴: 6861.109km
偏心率: 0.0000804
轨道倾角: 42.997°
近地点辐角 278.935°
升交点赤经 10.259°
平近点角 81.141°
近地点: 482.422km
远地点: 483.526km
周期: 94.265分钟
每日圈数: 15.276059
详细信息
固有亮度:
5
最大亮度:
1.5
卫星平台:
Starlink v2.0 mini
覆盖范围:
全球
运营商:
太空探索技术公司
运营商所在国:
美国
制造商(研发单位):
太空探索技术公司
制造商所在国:
美国
使用方式:
暂无
卫星简介
星链(Starlink)计划是由太空探索技术公司(SpaceX)提出的一个巨型低轨卫星互联网星座项目,计划在2019年至2024年间在太空搭建由约1.2万颗卫星组成的“星链”网络,其中1584颗将部署在地球上空550千米处的近地轨道,并从2020年开始工作。该卫星仍在工作。
2D轨道图
3D轨道图
轨道高度分析图
轨道倾角分析图
轨道综合分析图
查看轨道综合分析图